Location: Adrasan
(36.3319°N, 30.4314°E)
Time: 07:16:40
(UTC+00:00)

COSMO-SKYMED 1 - Pass Details

Date: 09 December 2023
Orbit: 622 x 623 km, 97.9° (Epoch: 29 February)

Event Time Altitude Azimuth Distance (km) Brightness Sun altitude
Exits shadow 15:21:54 - 26° (NNE) 2,697 5.4 -7.9°
Reaches altitude 10° 15:23:47 10° 35° (NE) 2,000 4.7 -8.2°
Maximum altitude 15:27:36 30° 97° (E) 1,125 3.4 -9.0°
Drops below altitude 10° 15:31:25 10° 159° (SSE) 1,988 5.2 -9.7°
Sets 15:33:51 0° 170° (S) 2,907 6.2 -10.1°
